SPACEBEE-76 (47711 NORAD) Tracking and Keplerian Element Data

This shows tracking and keplerian element data for the satellite.

Feedback or suggestion? Click here.




ElementValue
Catalog47711
NameSPACEBEE-76
Epoch Orbit617
Epoch Day99.89642632
Epoch Year2021
RAAN174.8375
Inclination97.4562
Eccentricity0.0011893
Argument of Perigee147.8701
Mean Anonmoly212.3262
Mean Motion15.21506412
Decay Rate4.758E-05
L11 47711U 21015N 21099.89642632 .00004758 00000-0 21415-3 0 9990
L22 47711 97.4562 174.8375 0011893 147.8701 212.3262 15.21506412 6179

Live tracking and technical data element details for SPACEBEE-76 (NORAD 47711). SPACEBEE-76 can be tracked NOW for your location showing map with azimuth and elevation plus other details from your city location.

Track the satellite on the map from your city or location and see movement details for azimuth, elevation, latitude, longitude, range, height, and movement on the map or in text.







IsCatalogInMostPopularTable: catalog: 47711, numindb: 10
Update: records affected: 1



GetName: 47711 SPACEBEE-76

Hit Count: updated at: Sat, 10 Apr 2021 18:53:39 GMT